Flag for Dominican Republic

Past Weather in Concepción de La Vega, Dominican Republic — Yesterday and Last 2 Weeks

Now
91 °F

Partly sunny.


Feels Like: 99 °F
Forecast: 92 / 76 °F
Wind: 14 mph from Southeast

Location: Santiago

Current Time: Jul 6, 2020 at 3:36:49 pm

Latest Report: Jul 6, 2020 at 2:00 pm


Visibility: N/A

Pressure: 29.98 "Hg

Humidity: 52%

Dew Point: 72 °F

Location of Concepción de La VegaLocation

Past Weather in Concepción de La Vega — Graph

°F

Concepción de La Vega Temperature Yesterday

Maximum temperature yesterday: 95 °F (at 4:00 pm)
Minimum temperature yesterday: 73 °F (at 4:00 am)
Average temperature yesterday: 83 °F

High & Low Weather Summary for the Past Weeks

 TemperatureHumidityPressure
High95 °F (Jun 21, 4:00 pm)100% (Jun 27, 2:00 am)30.09 "Hg (Jun 27, 2:00 am)
Low72 °F (Jul 3, 8:00 pm)41% (Jul 4, 3:00 pm)29.89 "Hg (Jun 30, 5:00 pm)
Average83 °F72%29.99 "Hg
* Reported Jun 21 2:00 pm — Jul 6 2:00 pm, Concepción de La Vega. Weather by CustomWeather, © 2020

Note: Actual official high and low records may vary slightly from our data, if they occured in-between our weather recording intervals... More about our weather records

Concepción de La Vega Weather History for the Previous 24 Hours

Scroll right to see more
 ConditionsComfort  
Time TempWeatherWind HumidityBarometerVisibility
2:00 pm
Mon, Jul 6
91 °FPartly sunny.14 mph52%29.98 "HgN/A
1:00 pm91 °FScattered clouds.7 mph52%30.01 "HgN/A
12:00 pm90 °FScattered clouds.16 mph55%30.01 "HgN/A
11:00 am90 °FPartly sunny.14 mph55%30.04 "HgN/A
10:00 am86 °FPartly sunny.13 mph66%30.04 "HgN/A
9:00 am81 °FPartly sunny.13 mph74%30.04 "HgN/A
8:00 am75 °FPartly sunny.5 mph94%30.04 "HgN/A
7:00 am75 °FScattered clouds.6 mph94%30.01 "HgN/A
6:00 am73 °FPassing clouds.5 mph100%30.01 "HgN/A
4:00 am75 °FPassing clouds.6 mph94%30.01 "HgN/A
3:00 am75 °FPassing clouds.7 mph94%30.01 "HgN/A
2:00 am77 °FPassing clouds.7 mph83%30.01 "HgN/A
1:00 am77 °FPassing clouds.5 mph83%30.04 "HgN/A
12:00 am77 °FPassing clouds.7 mph83%30.04 "HgN/A
11:00 pm
Sun, Jul 5
79 °FPassing clouds.5 mph79%30.04 "HgN/A
10:00 pm79 °FPassing clouds.7 mph79%30.01 "HgN/A
9:00 pm81 °FPassing clouds.7 mph74%30.01 "HgN/A
8:00 pm81 °FPassing clouds.10 mph74%29.98 "HgN/A
7:00 pm86 °FPassing clouds.12 mph62%29.95 "HgN/A
6:00 pm90 °FPassing clouds.15 mph55%29.92 "HgN/A
5:00 pm95 °FScattered clouds.17 mph44%29.92 "HgN/A
4:00 pm95 °FScattered clouds.17 mph50%29.92 "HgN/A
3:00 pm93 °FScattered clouds.12 mph53%29.95 "HgN/A
Weather by CustomWeather, © 2020

See weather overview